TimeEST,TemperatureF,Dew PointF,Humidity,Sea Level PressureIn,VisibilityMPH,Wind Direction,Wind SpeedMPH,Gust SpeedMPH,PrecipitationIn,Events,Conditions,WindDirDegrees,DateUTC
12:53 AM,9.0,-0.0,67,30.43,10.0,NW,9.2,-,N/A,,Overcast,320,2014-02-11 05:53:00
1:37 AM,9.0,-0.9,64,30.39,10.0,NW,8.1,-,N/A,,Overcast,310,2014-02-11 06:37:00
1:53 AM,10.0,-0.9,61,30.44,10.0,NW,5.8,-,N/A,,Overcast,310,2014-02-11 06:53:00
2:53 AM,10.0,-0.9,61,30.45,10.0,Calm,Calm,-,N/A,,Overcast,0,2014-02-11 07:53:00
3:53 AM,10.0,-0.0,64,30.45,10.0,West,3.5,-,N/A,,Overcast,280,2014-02-11 08:53:00
4:03 AM,10.0,-0.0,64,30.39,10.0,WNW,4.6,-,N/A,,Overcast,290,2014-02-11 09:03:00
4:53 AM,9.0,-0.9,64,30.45,10.0,Calm,Calm,-,N/A,,Overcast,0,2014-02-11 09:53:00
5:53 AM,8.1,1.0,73,30.46,10.0,Calm,Calm,-,N/A,,Overcast,0,2014-02-11 10:53:00
6:53 AM,8.1,1.0,73,30.48,10.0,ENE,4.6,-,N/A,,Overcast,60,2014-02-11 11:53:00
7:53 AM,7.0,-0.0,73,30.51,10.0,East,4.6,-,N/A,,Mostly Cloudy,100,2014-02-11 12:53:00
8:53 AM,7.0,1.0,77,30.52,10.0,South,3.5,-,N/A,,Partly Cloudy,170,2014-02-11 13:53:00
9:53 AM,10.0,1.9,70,30.52,10.0,East,3.5,-,N/A,,Partly Cloudy,80,2014-02-11 14:53:00
10:53 AM,12.9,3.0,65,30.53,10.0,Calm,Calm,-,N/A,,Partly Cloudy,0,2014-02-11 15:53:00
11:53 AM,15.1,1.9,56,30.53,10.0,Calm,Calm,-,N/A,,Partly Cloudy,0,2014-02-11 16:53:00
12:53 PM,15.1,1.0,54,30.52,10.0,Calm,Calm,-,N/A,,Scattered Clouds,0,2014-02-11 17:53:00
1:53 PM,16.0,1.9,54,30.51,10.0,Calm,Calm,-,0.00,,Scattered Clouds,0,2014-02-11 18:53:00
2:53 PM,16.0,1.9,54,30.48,10.0,ENE,4.6,-,N/A,,Mostly Cloudy,70,2014-02-11 19:53:00
3:53 PM,18.0,1.9,50,30.48,10.0,WNW,4.6,-,N/A,,Scattered Clouds,300,2014-02-11 20:53:00
4:53 PM,16.0,3.0,57,30.48,10.0,WSW,4.6,-,N/A,,Scattered Clouds,250,2014-02-11 21:53:00
5:53 PM,12.9,1.9,62,30.48,10.0,South,5.8,-,N/A,,Scattered Clouds,180,2014-02-11 22:53:00
6:17 PM,12.9,1.0,59,30.42,10.0,South,6.9,-,N/A,,Mostly Cloudy,180,2014-02-11 23:17:00
6:42 PM,12.0,1.0,61,30.42,10.0,SSE,4.6,-,N/A,,Scattered Clouds,160,2014-02-11 23:42:00
6:53 PM,12.0,1.0,61,30.48,10.0,South,5.8,-,N/A,,Scattered Clouds,180,2014-02-11 23:53:00
7:53 PM,10.0,1.0,67,30.47,10.0,SSE,4.6,-,N/A,,Clear,160,2014-02-12 00:53:00
8:53 PM,7.0,-2.0,67,30.47,10.0,SSE,6.9,-,N/A,,Clear,150,2014-02-12 01:53:00
9:53 PM,5.0,-2.9,70,30.46,10.0,SSE,4.6,-,N/A,,Clear,160,2014-02-12 02:53:00
10:53 PM,3.9,-4.0,70,30.47,10.0,South,5.8,-,N/A,,Clear,170,2014-02-12 03:53:00
11:53 PM,1.0,-4.0,79,30.45,10.0,South,5.8,-,N/A,,Clear,170,2014-02-12 04:53:00